Location: Silvestre
(23.5000°S, 53.1167°W)
Time: 22:21:51
(UTC+00:00)

Daily predictions for brighter satellites

Satellite Brightness Start Highest point End
(mag) Time Altitude Azimuth Time Altitude Azimuth Time Altitude Azimuth
FUSE 4.1 21:37:18 10° WNW 21:42:43 73° NNE 21:48:07 10° E
Cosmos 1809 Rocket 4.5 21:40:15 10° N 21:46:22 72° E 21:52:36 10° S
STARLINK-1135 3.9 21:43:47 10° NNW 21:47:48 50° NE 21:51:51 10° SE
STARLINK-1162 3.9 21:43:58 10° NNW 21:48:01 52° NE 21:52:07 10° SE
Cosmos 1140 Rocket 4.2 21:46:06 10° S 21:50:49 32° ESE 21:55:29 10° NE
IRS-1C Rocket 4.1 21:46:43 10° SSE 21:52:00 64° ENE 21:57:14 10° N
STARLINK-1141 3.7 21:48:42 10° NNW 21:52:46 58° NE 21:56:53 10° SE
STARLINK-1157 3.7 21:48:52 10° NNW 21:52:58 60° NE 21:57:08 10° SE
USA 229 DEB 4.2 21:45:51 10° N 21:53:07 47° ENE 22:00:17 10° SE
USA 229 4.3 21:45:58 10° N 21:53:14 46° ENE 22:00:24 10° SE
Cosmos 1190 Rocket 4.4 21:48:41 10° S 21:53:43 42° ESE 21:58:43 10° NE
Meteor 2-15 Rocket 4.4 21:49:43 10° S 21:55:52 68° E 22:01:54 10° NNE
Fermi 3.7 21:52:59 10° WNW 21:57:04 89° NNE 22:00:58 11° E
STARLINK-1140 3.6 21:53:36 10° NNW 21:57:43 67° NE 22:01:53 10° SE
STARLINK-1159 3.6 21:53:49 10° NNW 21:57:58 69° NE 22:02:09 10° SE
ADEOS Rocket 4.1 21:53:22 10° N 21:58:35 45° W 22:03:56 10° SSW
Atlas Centaur 2 3.9 21:57:34 10° N 22:01:08 16° NNE 22:04:19 10° ENE
Meteor 1-24 Rocket 4.4 21:56:44 10° NNE 22:01:15 28° E 22:05:52 10° SSE
STARLINK-1156 3.6 21:58:35 10° NNW 22:02:43 77° NE 22:06:54 10° SE
STARLINK-1171 3.6 21:58:47 10° NW 22:02:57 80° NE 22:07:10 10° SE
Okean O Rocket 4.3 22:01:49 10° SSW 22:05:14 22° WSW 22:08:37 10° WNW
Cosmos 614 Rocket 4.0 22:00:06 10° SSW 22:05:21 88° ESE 22:10:34 10° NNE
Orbus 7S 3.3 22:03:05 10° WSW 22:06:27 44° S 22:08:16 16° ESE
STARLINK-1148 3.6 22:03:30 10° NW 22:07:39 88° NE 22:11:51 10° SE
STARLINK-1155 3.6 22:03:45 10° NW 22:07:56 89° SW 22:12:10 10° SE
GPS 2-14 Rocket1 3.0 22:04:27 10° W 22:08:19 57° N 22:11:29 15° ENE
Okean 1-7 Rocket 4.0 22:05:49 10° NNE 22:09:58 40° E 22:14:12 10° SSE
Aureole 3 2.7 22:08:03 10° S 22:11:06 87° W 22:14:26 10° N
Intelsat 5-1 Rocket 3.4 22:10:03 10° N 22:12:10 18° NE 22:14:04 14° ENE
STARLINK-1158 3.7 22:08:30 10° NW 22:12:39 82° SW 22:16:50 10° SE
STARLINK-1166 3.8 22:08:45 10° NW 22:12:55 79° SW 22:17:08 10° SE
Lacrosse 5 4.2 22:10:05 10° W 22:13:59 22° SW 22:17:55 10° S
Palapa 6 Rocket 4.3 22:07:11 10° W 22:14:43 70° NNW 22:20:01 15° ENE
STARLINK-1165 3.9 22:13:43 10° NW 22:17:52 69° SW 22:22:04 10° SSE
Cosmos 1452 Rocket 3.9 22:13:15 10° NNW 22:18:30 70° WSW 22:23:49 10° S
Meteor 2-5 Rocket 3.6 22:13:43 10° N 22:19:12 68° E 22:24:50 10° SSE
Cosmos 371 Rocket 3.2 22:14:34 10° N 22:19:26 82° ENE 22:24:22 10° SSE
YAOGAN 1 3.3 22:15:44 10° SE 22:19:35 30° E 22:23:23 10° NNE
Meteor 1-16 Rocket 4.0 22:14:34 10° S 22:19:55 68° E 22:25:11 10° NNE
SL-08 ROCKET BODY 4.3 22:15:11 10° N 22:20:57 61° E 22:26:44 10° SSE
Cosmos 1340 Rocket 4.0 22:18:04 10° SSE 22:21:23 23° E 22:22:09 22° E
Cosmos 676 Rocket 4.3 22:17:08 10° S 22:22:18 46° ESE 22:27:23 10° NE
Cosmos 407 Rocket 3.7 22:17:07 10° SSW 22:22:27 76° WNW 22:27:38 10° N
CZ-2C R/B 3.7 22:19:36 15° ENE 22:22:34 23° ESE 22:26:49 10° SSE
STARLINK-1169 4.1 22:18:44 10° NW 22:22:51 60° SW 22:27:02 10° SSE
SL-14 R/B 3.8 22:23:20 10° NNE 22:26:52 33° E 22:30:24 10° SSE
CZ-2C R/B 4.0 22:23:28 10° NE 22:27:41 41° ESE 22:31:54 10° S
STARLINK-1178 4.4 22:23:46 10° NW 22:27:51 52° SW 22:31:58 10° SSE
NOSS 3-1 (C) 4.3 22:21:18 10° NNW 22:30:17 89° WSW 22:38:41 10° SSE
CZ-4 R/B 1.3 22:27:18 10° SSE 22:31:18 59° E 22:35:10 10° N
Meteosat 1 Rocket2 3.3 22:28:29 10° WSW 22:32:40 72° SSE 22:35:38 27° E
Cosmos 1110 Rocket 4.1 22:28:31 10° N 22:33:29 50° ENE 22:38:30 10° SSE
Cosmos 2058 Rocket 3.9 22:30:49 10° SSE 22:34:36 29° ESE 22:34:36 29° ESE
Cosmos 1939 Rocket 3.0 22:30:57 10° SSE 22:34:59 51° E 22:38:54 10° N
Cosmos 1626 2.3 22:34:33 10° NNE 22:38:07 47° E 22:41:12 13° SSE
CSL-04 Debris 4.5 22:33:29 10° SSE 22:38:44 43° E 22:43:55 10° N
Delta 168 3.7 22:37:22 10° NW 22:40:45 35° NNE 22:41:41 31° NE
Cosmos 1908 3.1 22:37:40 10° S 22:41:30 61° E 22:45:16 10° NNE
Cosmos 1726 Rocket 3.4 22:40:51 10° S 22:45:12 70° E 22:49:32 10° NNE
Cosmos 1953 4.4 22:41:56 10° SSW 22:45:27 29° W 22:48:55 10° NNW
Cosmos 1954 Rocket 3.9 22:40:43 10° SSW 22:46:05 80° ESE 22:51:23 10° NNE
STARLINK-26 3.0 22:44:01 10° SSW 22:47:31 69° SE 22:47:35 69° ESE
Okean-O 3.7 22:44:35 10° S 22:48:52 46° WSW 22:53:06 10° NNW
Cosmos 332 Rocket 4.3 22:45:46 10° NNW 22:50:34 60° WSW 22:55:24 10° S
COSMOS 2406 3.9 22:46:43 10° S 22:51:26 33° ESE 22:51:26 33° ESE
SL-24 R/B 3.6 22:50:19 34° NNE 22:51:52 72° ESE 22:55:59 10° S
SWIFT 4.2 22:50:42 10° WNW 22:53:57 21° NNW 22:55:21 18° N
Delta 7925 Rocket 4.4 22:47:16 10° W 22:54:09 81° S 22:58:20 34° ESE
Cosmos 2278 Rocket 3.2 22:51:40 10° NW 22:57:06 47° WSW 23:02:35 10° S
IUS-9 SRM-1 4.0 22:28:09 10° W 22:57:28 76° S 23:00:00 40° ESE
FALCON 9 R/B 2.7 22:49:19 10° W 22:58:40 45° SSW 23:00:17 31° SSE
Nadezhda 1 Rocket 4.0 22:58:08 10° S 23:04:32 87° W 23:10:56 10° N
CSL-04 Rocket 3.5 22:59:03 10° SSE 23:04:32 79° ENE 23:09:53 10° N
Cosmos 2228 4.1 23:03:04 10° SSW 23:07:09 45° W 23:11:11 10° NNW
BREEZE-M DEB (TANK) 3.9 22:56:16 10° NNW 23:07:40 41° NE 23:07:43 41° NE
Aurora 2 Rocket 2.9 23:04:29 10° WNW 23:06:43 43° WNW 23:06:43 43° WNW
MERIDIAN 1 3.9 22:59:29 10° NNW 23:08:33 59° NNE 23:08:33 59° NNE
USA 215 3.1 23:12:40 34° SE 23:15:53 88° NE 23:22:26 10° NW
FUSE 4.2 23:23:43 10° W 23:28:31 67° WSW 23:28:31 67° WSW
Atlas Centaur 2 3.7 23:44:45 10° NW 23:47:21 25° NW 23:47:21 25° NW
